Location: ???? ?????????
(31.1304°N, 31.7111°E)
Time: 18:35:38
(UTC+00:00)

ASTRO E2 - Pass Details

Date: 29 October 2020
Orbit: 509 x 515 km, 31.4° (Epoch: 30 November)

Event Time Altitude Azimuth Distance (km) Brightness Sun altitude
Rises 15:56:32 0° 268° (W) 2,601 8.3 -11.2°
Reaches altitude 10° 15:58:46 10° 269° (W) 1,716 6.8 -11.7°
Maximum altitude 16:02:43 85° 358° (N) 511 2.6 -12.5°
Enters shadow 16:05:14 21° 86° (E) 1,164 3.8 -13.0°
